SAS1817 ENBR-EDDH

Flight info

Callsign SAS1817
Flight time 1h 17m
Altitude 37000
Route TUXIL4D TUXIL DCT ZOL DCT ATTUS DCT GIKOG DCT OSTOR/N0405F230 T904 RIBSO RIBSO3P
Aircraft A320/M-SDE3FGHIRWY/LB1

Departure

Time 2026-04-23 18:06
Airport Bergen Airport, Flesland (ENBR)

Arrival

Time 2026-04-23 19:24
Airport Hamburg Helmut Schmidt Airport (EDDH)
Time Latitude Longitude Altitude Speed Heading
2026-04-23 17:54 60.28700 5.22923 173 ft 0 kts 80°
2026-04-23 18:00 60.28700 5.22924 173 ft 0 kts 80°
2026-04-23 18:00 60.28698 5.22891 173 ft 2 kts 80°
2026-04-23 18:00 60.28695 5.22858 173 ft 2 kts 80°
2026-04-23 18:00 60.28692 5.22824 173 ft 2 kts 80°
2026-04-23 18:01 60.28690 5.22787 172 ft 3 kts 63°
2026-04-23 18:01 60.28677 5.22765 171 ft 1 kts 354°
2026-04-23 18:02 60.28681 5.22763 171 ft 3 kts 352°
2026-04-23 18:03 60.28716 5.22684 170 ft 14 kts 279°
2026-04-23 18:03 60.28691 5.22459 165 ft 19 kts 246°
2026-04-23 18:03 60.28587 5.22392 164 ft 17 kts 168°
2026-04-23 18:03 60.28472 5.22430 163 ft 16 kts 171°
2026-04-23 18:04 60.28360 5.22468 160 ft 17 kts 171°
2026-04-23 18:04 60.28234 5.22510 154 ft 19 kts 170°
2026-04-23 18:04 60.28123 5.22544 151 ft 12 kts 172°
2026-04-23 18:04 60.28062 5.22490 152 ft 11 kts 235°
2026-04-23 18:05 60.28049 5.22299 150 ft 13 kts 284°
2026-04-23 18:05 60.28105 5.22233 150 ft 0 kts 350°
2026-04-23 18:05 60.28110 5.22231 150 ft 5 kts 350°
2026-04-23 18:06 60.28360 5.22145 159 ft 72 kts 351°
2026-04-23 18:06 60.29058 5.21911 161 ft 129 kts 350°
2026-04-23 18:06 60.30036 5.21594 584 ft 143 kts 350°
2026-04-23 18:06 60.31020 5.21314 1364 ft 142 kts 351°
2026-04-23 18:07 60.32027 5.20983 1942 ft 155 kts 350°
2026-04-23 18:07 60.33162 5.20589 2278 ft 177 kts 350°
2026-04-23 18:07 60.34465 5.20136 2661 ft 202 kts 351°
2026-04-23 18:07 60.35938 5.19624 3178 ft 225 kts 351°
2026-04-23 18:08 60.36978 5.19263 3662 ft 233 kts 351°
2026-04-23 18:08 60.39157 5.18510 4865 ft 240 kts 350°
2026-04-23 18:08 60.40807 5.17946 5856 ft 241 kts 349°
2026-04-23 18:08 60.42468 5.17385 6818 ft 243 kts 349°
2026-04-23 18:09 60.44143 5.16818 7694 ft 246 kts 349°
2026-04-23 18:09 60.45848 5.16232 8532 ft 251 kts 347°
2026-04-23 18:09 60.47456 5.14873 9327 ft 255 kts 322°
2026-04-23 18:09 60.48531 5.11994 10162 ft 264 kts 294°
2026-04-23 18:10 60.48736 5.08236 10938 ft 278 kts 268°
2026-04-23 18:10 60.48545 5.05659 11467 ft 280 kts 265°
2026-04-23 18:10 60.47912 5.01871 12246 ft 293 kts 243°
2026-04-23 18:10 60.46442 4.98905 13013 ft 310 kts 216°
2026-04-23 18:11 60.44310 4.97441 13301 ft 344 kts 188°
2026-04-23 18:11 60.41828 4.97453 13469 ft 370 kts 180°
2026-04-23 18:11 60.38351 4.98176 14109 ft 385 kts 175°
2026-04-23 18:11 60.35683 4.98941 14738 ft 389 kts 174°
2026-04-23 18:12 60.33867 4.99471 15175 ft 391 kts 175°
2026-04-23 18:12 60.31163 5.00213 15845 ft 393 kts 175°
2026-04-23 18:12 60.28440 5.00883 16515 ft 395 kts 176°
2026-04-23 18:12 60.25720 5.01812 17164 ft 399 kts 172°
2026-04-23 18:13 60.22991 5.02874 17816 ft 401 kts 172°
2026-04-23 18:13 60.20244 5.03942 18459 ft 403 kts 172°
2026-04-23 18:13 60.17484 5.05031 19021 ft 406 kts 170°
2026-04-23 18:13 60.14765 5.06705 19542 ft 412 kts 160°
2026-04-23 18:14 60.12123 5.08982 20066 ft 414 kts 159°
2026-04-23 18:14 60.09468 5.11278 20585 ft 417 kts 159°
2026-04-23 18:14 60.06795 5.13576 21089 ft 419 kts 160°
2026-04-23 18:14 60.04106 5.15877 21595 ft 422 kts 160°
2026-04-23 18:15 60.01405 5.18189 22120 ft 423 kts 159°
2026-04-23 18:15 59.98693 5.20507 22661 ft 424 kts 159°
2026-04-23 18:15 59.95973 5.22825 23160 ft 426 kts 160°
2026-04-23 18:15 59.93233 5.25154 23618 ft 430 kts 160°
2026-04-23 18:16 59.90474 5.27497 24074 ft 432 kts 160°
2026-04-23 18:16 59.87700 5.29837 24431 ft 435 kts 160°
2026-04-23 18:16 59.84885 5.32205 24547 ft 444 kts 160°
2026-04-23 18:17 59.79006 5.36254 24804 ft 455 kts 172°
2026-04-23 18:17 59.75863 5.36990 25021 ft 456 kts 178°
2026-04-23 18:17 59.72697 5.37507 25303 ft 458 kts 178°
2026-04-23 18:17 59.69515 5.38030 25591 ft 460 kts 178°
2026-04-23 18:18 59.66324 5.38558 25894 ft 461 kts 178°
2026-04-23 18:18 59.63121 5.39121 26198 ft 463 kts 178°
2026-04-23 18:18 59.59912 5.39830 26494 ft 465 kts 176°
2026-04-23 18:18 59.56695 5.40660 26794 ft 467 kts 175°
2026-04-23 18:19 59.53475 5.41550 27083 ft 468 kts 175°
2026-04-23 18:19 59.50244 5.42451 27363 ft 470 kts 175°
2026-04-23 18:19 59.47001 5.43330 27625 ft 471 kts 176°
2026-04-23 18:19 59.43754 5.44176 27901 ft 472 kts 176°
2026-04-23 18:20 59.40497 5.45001 28241 ft 471 kts 176°
2026-04-23 18:20 59.37256 5.45925 28641 ft 471 kts 174°
2026-04-23 18:20 59.34027 5.47018 29019 ft 470 kts 173°
2026-04-23 18:20 59.30821 5.48226 29415 ft 469 kts 172°
2026-04-23 18:21 59.27626 5.49485 29817 ft 468 kts 172°
2026-04-23 18:21 59.24438 5.50740 30206 ft 467 kts 172°
2026-04-23 18:21 59.21256 5.51962 30580 ft 465 kts 173°
2026-04-23 18:21 59.18082 5.53140 30884 ft 464 kts 173°
2026-04-23 18:22 59.14909 5.54281 31186 ft 464 kts 173°
2026-04-23 18:22 59.11733 5.55403 31490 ft 463 kts 173°
2026-04-23 18:22 59.08570 5.56519 31809 ft 462 kts 173°
2026-04-23 18:22 59.05410 5.57638 32125 ft 461 kts 173°
2026-04-23 18:23 59.02254 5.58761 32453 ft 460 kts 174°
2026-04-23 18:23 58.95970 5.60999 33100 ft 458 kts 174°
2026-04-23 18:24 58.89717 5.63236 33709 ft 457 kts 172°
2026-04-23 18:24 58.86683 5.64875 34013 ft 461 kts 163°
2026-04-23 18:24 58.83732 5.67360 34327 ft 463 kts 159°
2026-04-23 18:25 58.77893 5.72559 34884 ft 461 kts 160°
2026-04-23 18:25 58.74943 5.75163 35176 ft 460 kts 160°
2026-04-23 18:25 58.72028 5.77726 35451 ft 460 kts 160°
2026-04-23 18:25 58.69124 5.80273 35710 ft 459 kts 160°
2026-04-23 18:26 58.66262 5.82782 35966 ft 458 kts 160°
2026-04-23 18:26 58.63361 5.85320 36220 ft 457 kts 160°
2026-04-23 18:26 58.60470 5.87848 36453 ft 457 kts 160°
2026-04-23 18:26 58.57580 5.90376 36694 ft 456 kts 160°
2026-04-23 18:27 58.54694 5.92893 36915 ft 456 kts 160°
2026-04-23 18:27 58.51808 5.95406 37143 ft 455 kts 160°
2026-04-23 18:27 58.48926 5.97907 37302 ft 455 kts 160°
2026-04-23 18:28 58.43161 6.02879 37320 ft 454 kts 160°
2026-04-23 18:28 58.37407 6.07839 37320 ft 454 kts 160°
2026-04-23 18:29 58.31653 6.12805 37306 ft 454 kts 160°
2026-04-23 18:29 58.25905 6.17738 37312 ft 453 kts 160°
2026-04-23 18:30 58.20150 6.22651 37283 ft 454 kts 160°
2026-04-23 18:30 58.14375 6.27551 37285 ft 455 kts 160°
2026-04-23 18:31 58.08597 6.32445 37287 ft 456 kts 160°
2026-04-23 18:31 58.02810 6.37346 37280 ft 456 kts 160°
2026-04-23 18:32 57.97025 6.42235 37273 ft 455 kts 161°
2026-04-23 18:32 57.91239 6.47085 37286 ft 455 kts 161°
2026-04-23 18:33 57.85456 6.51904 37287 ft 455 kts 161°
2026-04-23 18:33 57.79668 6.56712 37273 ft 455 kts 161°
2026-04-23 18:34 57.73882 6.61511 37259 ft 455 kts 161°
2026-04-23 18:34 57.68104 6.66294 37264 ft 454 kts 161°
2026-04-23 18:35 57.62322 6.71066 37256 ft 455 kts 160°
2026-04-23 18:35 57.56518 6.75831 37231 ft 456 kts 160°
2026-04-23 18:36 57.50739 6.80557 37240 ft 457 kts 162°
2026-04-23 18:36 57.44872 6.85336 37241 ft 458 kts 160°
2026-04-23 18:37 57.39040 6.90080 37258 ft 458 kts 162°
2026-04-23 18:37 57.33243 6.94772 37260 ft 458 kts 162°
2026-04-23 18:38 57.27405 6.99472 37264 ft 457 kts 162°
2026-04-23 18:38 57.21571 7.04163 37263 ft 457 kts 160°
2026-04-23 18:39 57.15742 7.08854 37259 ft 457 kts 162°
2026-04-23 18:39 57.09918 7.13515 37246 ft 457 kts 160°
2026-04-23 18:40 57.04079 7.18158 37223 ft 457 kts 160°
2026-04-23 18:40 56.98233 7.22786 37242 ft 458 kts 161°
2026-04-23 18:41 56.92373 7.27412 37246 ft 459 kts 160°
2026-04-23 18:41 56.86514 7.32036 37234 ft 459 kts 162°
2026-04-23 18:42 56.80655 7.36652 37250 ft 458 kts 162°
2026-04-23 18:42 56.74791 7.41217 37251 ft 458 kts 162°
2026-04-23 18:43 56.68929 7.45776 37256 ft 458 kts 160°
2026-04-23 18:43 56.63071 7.50343 37250 ft 458 kts 162°
2026-04-23 18:44 56.57259 7.54856 37248 ft 457 kts 160°
2026-04-23 18:44 56.51402 7.59370 37240 ft 458 kts 160°
2026-04-23 18:45 56.45529 7.63875 37236 ft 459 kts 160°
2026-04-23 18:45 56.39649 7.68378 37232 ft 459 kts 161°
2026-04-23 18:46 56.33756 7.72885 37241 ft 460 kts 160°
2026-04-23 18:46 56.27865 7.77381 37240 ft 460 kts 160°
2026-04-23 18:47 56.21972 7.81853 37249 ft 460 kts 161°
2026-04-23 18:47 56.16074 7.86312 37256 ft 460 kts 160°
2026-04-23 18:48 56.10175 7.90773 36859 ft 460 kts 161°
2026-04-23 18:48 56.07219 7.92994 36469 ft 461 kts 161°
2026-04-23 18:48 56.04258 7.95209 36080 ft 461 kts 161°
2026-04-23 18:48 56.01297 7.97427 35704 ft 462 kts 160°
2026-04-23 18:49 55.98324 7.99651 35328 ft 464 kts 160°
2026-04-23 18:49 55.95346 8.01873 34964 ft 465 kts 159°
2026-04-23 18:49 55.92353 8.04103 34604 ft 467 kts 160°
2026-04-23 18:49 55.89349 8.06341 34253 ft 469 kts 160°
2026-04-23 18:50 55.87352 8.07827 33970 ft 471 kts 160°
2026-04-23 18:50 55.83298 8.10841 33428 ft 472 kts 159°
2026-04-23 18:50 55.80264 8.13087 33029 ft 473 kts 160°
2026-04-23 18:50 55.77222 8.15331 32635 ft 475 kts 160°
2026-04-23 18:51 55.74158 8.17591 32246 ft 478 kts 160°
2026-04-23 18:51 55.71082 8.19859 31869 ft 479 kts 160°
2026-04-23 18:51 55.68005 8.22129 31492 ft 479 kts 160°
2026-04-23 18:51 55.64927 8.24397 31120 ft 481 kts 160°
2026-04-23 18:52 55.61837 8.26664 30748 ft 480 kts 159°
2026-04-23 18:52 55.58754 8.28924 30383 ft 482 kts 160°
2026-04-23 18:52 55.55650 8.31186 29966 ft 484 kts 160°
2026-04-23 18:52 55.52531 8.33447 29546 ft 483 kts 159°
2026-04-23 18:53 55.49422 8.35703 29135 ft 484 kts 159°
2026-04-23 18:53 55.46297 8.37975 28739 ft 488 kts 159°
2026-04-23 18:53 55.43161 8.40256 28331 ft 488 kts 158°
2026-04-23 18:53 55.40017 8.42542 27935 ft 491 kts 159°
2026-04-23 18:54 55.36851 8.44836 27531 ft 493 kts 159°
2026-04-23 18:54 55.33735 8.47087 27152 ft 489 kts 158°
2026-04-23 18:54 55.30603 8.49344 26773 ft 487 kts 159°
2026-04-23 18:54 55.27470 8.51594 26401 ft 485 kts 159°
2026-04-23 18:55 55.24341 8.53832 26033 ft 486 kts 159°
2026-04-23 18:55 55.21217 8.56065 25663 ft 485 kts 159°
2026-04-23 18:55 55.18092 8.58304 25303 ft 484 kts 159°
2026-04-23 18:55 55.14997 8.60521 24945 ft 479 kts 159°
2026-04-23 18:56 55.12923 8.62006 24705 ft 475 kts 159°
2026-04-23 18:56 55.08876 8.64899 24243 ft 476 kts 159°
2026-04-23 18:56 55.05815 8.67071 23908 ft 475 kts 159°
2026-04-23 18:56 55.02771 8.69227 23522 ft 469 kts 159°
2026-04-23 18:57 54.99764 8.71360 23232 ft 465 kts 159°
2026-04-23 18:57 54.96774 8.73481 23260 ft 465 kts 159°
2026-04-23 18:57 54.93774 8.75604 23254 ft 467 kts 159°
2026-04-23 18:57 54.90763 8.77723 23252 ft 467 kts 159°
2026-04-23 18:58 54.87745 8.79826 23202 ft 467 kts 159°
2026-04-23 18:58 54.84748 8.81865 22792 ft 456 kts 159°
2026-04-23 18:58 54.81844 8.83806 22661 ft 439 kts 160°
2026-04-23 18:58 54.79042 8.85661 22526 ft 423 kts 160°
2026-04-23 18:59 54.76343 8.87449 22394 ft 408 kts 160°
2026-04-23 18:59 54.73735 8.89181 22263 ft 395 kts 160°
2026-04-23 18:59 54.71209 8.90860 22134 ft 383 kts 160°
2026-04-23 18:59 54.68759 8.92485 21933 ft 373 kts 160°
2026-04-23 19:00 54.67161 8.93544 21690 ft 370 kts 160°
2026-04-23 19:00 54.64720 8.94937 21262 ft 368 kts 166°
2026-04-23 19:00 54.62238 8.95848 20935 ft 362 kts 172°
2026-04-23 19:00 54.59736 8.96291 20489 ft 361 kts 177°
2026-04-23 19:01 54.57236 8.96575 20108 ft 359 kts 177°
2026-04-23 19:01 54.54758 8.96863 19784 ft 355 kts 176°
2026-04-23 19:01 54.52295 8.97156 19364 ft 355 kts 176°
2026-04-23 19:01 54.49829 8.97455 18976 ft 355 kts 176°
2026-04-23 19:02 54.47373 8.97754 18612 ft 354 kts 176°
2026-04-23 19:02 54.44912 8.98051 18157 ft 354 kts 176°
2026-04-23 19:02 54.42463 8.98343 17787 ft 352 kts 176°
2026-04-23 19:02 54.40030 8.98629 17462 ft 348 kts 176°
2026-04-23 19:03 54.37614 8.98912 17070 ft 348 kts 176°
2026-04-23 19:03 54.35212 8.99195 16738 ft 345 kts 176°
2026-04-23 19:03 54.32829 8.99475 16410 ft 342 kts 176°
2026-04-23 19:03 54.30454 8.99753 16035 ft 342 kts 176°
2026-04-23 19:04 54.28082 9.00030 15700 ft 341 kts 176°
2026-04-23 19:04 54.25745 9.00632 15374 ft 339 kts 161°
2026-04-23 19:04 54.23567 9.02153 14991 ft 338 kts 155°
2026-04-23 19:04 54.21414 9.03776 14653 ft 338 kts 154°
2026-04-23 19:05 54.19267 9.05407 14362 ft 336 kts 155°
2026-04-23 19:05 54.17141 9.07025 14069 ft 334 kts 155°
2026-04-23 19:05 54.15024 9.08636 13719 ft 332 kts 155°
2026-04-23 19:05 54.12922 9.10237 13391 ft 330 kts 155°
2026-04-23 19:06 54.10831 9.11827 13039 ft 328 kts 155°
2026-04-23 19:06 54.08778 9.13381 12701 ft 327 kts 155°
2026-04-23 19:06 54.06705 9.14940 12353 ft 325 kts 155°
2026-04-23 19:06 54.04637 9.16493 12001 ft 324 kts 155°
2026-04-23 19:07 54.02579 9.18040 11657 ft 323 kts 155°
2026-04-23 19:07 54.00532 9.19583 11329 ft 321 kts 155°
2026-04-23 19:07 53.98491 9.21122 11262 ft 321 kts 155°
2026-04-23 19:07 53.96441 9.22666 11271 ft 322 kts 155°
2026-04-23 19:08 53.94390 9.24208 11270 ft 323 kts 155°
2026-04-23 19:08 53.92336 9.25747 11272 ft 323 kts 155°
2026-04-23 19:08 53.90282 9.27282 11214 ft 321 kts 156°
2026-04-23 19:08 53.88240 9.28803 10862 ft 320 kts 156°
2026-04-23 19:09 53.86281 9.30535 10527 ft 316 kts 142°
2026-04-23 19:09 53.84744 9.33128 10186 ft 310 kts 121°
2026-04-23 19:09 53.83844 9.36368 9797 ft 301 kts 99°
2026-04-23 19:09 53.83673 9.39815 9401 ft 290 kts 78°
2026-04-23 19:10 53.83935 9.43189 8984 ft 289 kts 76°
2026-04-23 19:10 53.84205 9.46551 8606 ft 287 kts 76°
2026-04-23 19:10 53.84470 9.49894 8221 ft 286 kts 77°
2026-04-23 19:10 53.84733 9.53228 7836 ft 285 kts 77°
2026-04-23 19:11 53.84992 9.56542 7452 ft 283 kts 76°
2026-04-23 19:11 53.85246 9.59835 7255 ft 281 kts 76°
2026-04-23 19:11 53.85500 9.63125 7251 ft 282 kts 76°
2026-04-23 19:11 53.85753 9.66427 7270 ft 283 kts 77°
2026-04-23 19:12 53.86005 9.69743 7251 ft 284 kts 77°
2026-04-23 19:12 53.86257 9.73075 7257 ft 285 kts 77°
2026-04-23 19:12 53.86511 9.76403 7251 ft 285 kts 77°
2026-04-23 19:12 53.86687 9.79721 7252 ft 289 kts 84°
2026-04-23 19:13 53.86525 9.83135 7257 ft 292 kts 91°
2026-04-23 19:13 53.86279 9.86551 7256 ft 292 kts 91°
2026-04-23 19:13 53.86037 9.89971 7253 ft 292 kts 91°
2026-04-23 19:13 53.85798 9.93391 7249 ft 292 kts 91°
2026-04-23 19:14 53.85560 9.96814 7249 ft 293 kts 91°
2026-04-23 19:14 53.85320 10.00234 7248 ft 293 kts 91°
2026-04-23 19:14 53.85073 10.03657 7253 ft 293 kts 92°
2026-04-23 19:14 53.84824 10.07084 7244 ft 293 kts 91°
2026-04-23 19:15 53.84574 10.10509 7240 ft 293 kts 91°
2026-04-23 19:15 53.84327 10.13907 7204 ft 285 kts 91°
2026-04-23 19:15 53.84331 10.17135 7081 ft 265 kts 75°
2026-04-23 19:15 53.84781 10.20036 6942 ft 247 kts 60°
2026-04-23 19:16 53.85570 10.22529 6675 ft 236 kts 47°
2026-04-23 19:16 53.86591 10.24650 6328 ft 231 kts 43°
2026-04-23 19:16 53.87625 10.26727 5995 ft 230 kts 43°
2026-04-23 19:17 53.88552 10.31915 5311 ft 253 kts 99°
2026-04-23 19:17 53.87730 10.34576 4975 ft 261 kts 131°
2026-04-23 19:17 53.86264 10.36393 4608 ft 263 kts 155°
2026-04-23 19:17 53.84509 10.37181 4269 ft 260 kts 179°
2026-04-23 19:18 53.82739 10.36855 3931 ft 254 kts 202°
2026-04-23 19:18 53.81201 10.35542 3611 ft 245 kts 224°
2026-04-23 19:18 53.80036 10.33533 3273 ft 237 kts 237°
2026-04-23 19:18 53.78995 10.31388 3021 ft 234 kts 238°
2026-04-23 19:19 53.76907 10.27093 3014 ft 237 kts 238°
2026-04-23 19:19 53.75858 10.24946 3012 ft 236 kts 238°
2026-04-23 19:20 53.73827 10.20792 3006 ft 228 kts 238°
2026-04-23 19:20 53.72829 10.18754 2891 ft 223 kts 238°
2026-04-23 19:20 53.71859 10.16777 2633 ft 214 kts 238°
2026-04-23 19:20 53.70930 10.14883 2362 ft 205 kts 239°
2026-04-23 19:21 53.70037 10.13064 2092 ft 198 kts 239°
2026-04-23 19:21 53.68356 10.09643 1568 ft 179 kts 239°
2026-04-23 19:21 53.67585 10.08072 1335 ft 167 kts 238°
2026-04-23 19:22 53.66882 10.06648 1106 ft 150 kts 239°
2026-04-23 19:22 53.66243 10.05347 902 ft 140 kts 238°
2026-04-23 19:22 53.65055 10.02928 543 ft 130 kts 237°
2026-04-23 19:23 53.64487 10.01774 369 ft 128 kts 238°
2026-04-23 19:23 53.63926 10.00635 201 ft 125 kts 237°
2026-04-23 19:23 53.63379 9.99519 51 ft 119 kts 237°
2026-04-23 19:24 53.62818 9.98504 44 ft 13 kts 202°
2026-04-23 19:24 53.62767 9.98478 45 ft 6 kts 191°
2026-04-23 19:24 53.62735 9.98639 46 ft 13 kts 57°
2026-04-23 19:25 53.62851 9.98878 47 ft 17 kts 50°
2026-04-23 19:25 53.63014 9.99209 47 ft 14 kts 51°
2026-04-23 19:26 53.63050 9.99286 47 ft 0 kts 53°
2026-04-23 19:27 53.63067 9.99324 47 ft 9 kts 53°
2026-04-23 19:27 53.63084 9.99366 47 ft 0 kts 56°
2026-04-23 19:28 53.63148 9.99514 46 ft 16 kts 52°
2026-04-23 19:29 53.63189 9.99604 47 ft 5 kts 52°
2026-04-23 19:29 53.63190 9.99787 48 ft 14 kts 147°
2026-04-23 19:30 53.63032 9.99925 48 ft 12 kts 153°
2026-04-23 19:30 53.62961 9.99987 47 ft 11 kts 152°
2026-04-23 19:30 53.62832 10.00081 48 ft 9 kts 152°
2026-04-23 19:31 53.62778 10.00129 46 ft 8 kts 153°
2026-04-23 19:31 53.62747 10.00188 48 ft 7 kts 86°
2026-04-23 19:31 53.62765 10.00249 48 ft 5 kts 63°
2026-04-23 19:31 53.62771 10.00267 48 ft 0 kts 63°